FW3284 Weather Reports


Display with metric or nautical units.
time (UTC)temp
F
wind
direction
speed
MPH
gust
MPH
rain 1hr
in
rain 24hr
in
rain mn
in
humidity
%
barometer
mb
20260902194506 96 292 2.0 6.0 0.00 0.00 0.00 39 1013.2
20260902193045 98 230 1.0 5.0 0.00 0.00 0.00 40 1013.4
20260902191526 96 242 0.0 2.0 0.00 0.00 0.00 43 1013.6
20260902190101 97 153 2.0 6.0 0.00 0.00 0.00 42 1013.8
20260902190002 97 130 3.0 6.0 0.00 0.00 0.00 42 1013.9
20260902184543 97 185 1.0 6.0 0.00 0.00 0.00 41 1014.0
20260902183031 97 144 1.0 6.0 0.00 0.00 0.00 42 1014.2
20260902181504 96 179 2.0 6.0 0.00 0.00 0.00 42 1014.4
20260902180049 96 193 2.0 7.0 0.00 0.00 0.00 42 1014.6
20260902174533 96 344 2.0 7.0 0.00 0.00 0.00 44 1014.8
20260902173012 95 222 2.0 6.0 0.00 0.00 0.00 47 1015.0
20260902171549 93 31 0.0 7.0 0.00 0.00 0.00 50 1015.2
20260902170028 92 237 2.0 10.0 0.00 0.00 0.00 50 1015.4
20260902164520 92 233 3.0 10.0 0.00 0.00 0.00 50 1015.5
20260902163055 92 197 3.0 7.0 0.00 0.00 0.00 50 1015.6
20260902161540 92 265 3.0 6.0 0.00 0.00 0.00 50 1015.7
20260902160018 91 245 2.0 8.0 0.00 0.00 0.00 51 1015.8
20260902154559 89 224 2.0 9.0 0.00 0.00 0.00 54 1015.8
20260902153033 89 225 3.0 10.0 0.00 0.00 0.00 54 1015.7
20260902151512 88 202 4.0 13.0 0.00 0.00 0.00 56 1015.7
20260902150048 87 238 2.0 8.0 0.00 0.00 0.00 58 1015.7
20260902144538 86 258 3.0 8.0 0.00 0.00 0.00 59 1015.6
20260902143024 86 248 5.0 10.0 0.00 0.00 0.00 59 1015.7
20260902141601 86 248 3.0 8.0 0.00 0.00 0.00 60 1015.7
20260902141502 86 239 2.0 8.0 0.00 0.00 0.00 60 1015.6
20260902140046 86 224 1.0 5.0 0.00 0.00 0.00 60 1015.6
20260902134522 85 225 1.0 6.0 0.00 0.00 0.00 61 1015.6
20260902133058 83 294 1.0 5.0 0.00 0.00 0.00 62 1015.8
20260902131600 83 175 1.0 6.0 0.00 0.00 0.00 64 1015.8
20260902130030 81 212 1.0 4.0 0.00 0.00 0.00 66 1015.8
20260902124502 80 189 1.0 4.0 0.00 0.00 0.00 67 1015.8
20260902123038 79 288 0.0 2.0 0.00 0.00 0.00 69 1015.9
20260902121520 78 182 0.0 2.0 0.00 0.00 0.00 70 1015.6
20260902120100 76 174 0.0 2.0 0.00 0.00 0.00 72 1015.5
20260902114551 76 252 0.0 2.0 0.00 0.00 0.00 73 1015.4
20260902113018 76 141 0.0 2.0 0.00 0.00 0.00 71 1015.2
20260902111602 77 49 0.0 2.0 0.00 0.00 0.00 69 1015.0
20260902110053 78 1 0.0 2.0 0.00 0.00 0.00 67 1014.9
20260902104523 79 122 0.0 3.0 0.00 0.00 0.00 66 1014.8
20260902103105 79 209 0.0 5.0 0.00 0.00 0.00 66 1014.8
20260902101536 79 79 1.0 4.0 0.00 0.00 0.00 65 1014.8
20260902100016 79 184 0.0 3.0 0.00 0.00 0.00 65 1014.7
20260902094556 79 272 0.0 4.0 0.00 0.00 0.00 64 1014.7
20260902093040 79 215 1.0 2.0 0.00 0.00 0.00 64 1014.6
20260902091528 79 190 1.0 4.0 0.00 0.00 0.00 64 1014.4
20260902090005 79 193 1.0 5.0 0.00 0.00 0.00 65 1014.4
20260902084534 79 224 1.0 4.0 0.00 0.00 0.00 65 1014.5
20260902083012 79 118 1.0 5.0 0.00 0.00 0.00 66 1014.6
20260902081556 79 204 1.0 3.0 0.00 0.00 0.00 65 1014.6
20260902080047 79 154 0.0 3.0 0.00 0.00 0.00 65 1014.6
20260902074520 79 244 0.0 3.0 0.00 0.00 0.00 64 1014.6
20260902073056 80 198 0.0 3.0 0.00 0.00 0.00 64 1014.5
20260902073010 80 252 0.0 3.0 0.00 0.00 0.00 64 1014.5
20260902071542 80 198 0.0 4.0 0.00 0.00 0.00 63 1014.6
20260902070020 80 205 0.0 3.0 0.00 0.00 0.00 63 1014.6
20260902064556 81 88 1.0 3.0 0.00 0.00 0.00 62 1014.6
20260902063038 81 179 0.0 7.0 0.00 0.00 0.00 61 1014.6
20260902061516 81 213 0.0 5.0 0.00 0.00 0.00 60 1014.5
20260902060121 82 189 0.0 7.0 0.00 0.00 0.00 59 1014.5
20260902054541 82 169 1.0 4.0 0.00 0.00 0.00 58 1014.4
20260902053022 82 238 1.0 5.0 0.00 0.00 0.00 58 1014.3
20260902051508 83 291 1.0 8.0 0.00 0.00 0.00 57 1014.3
20260902050042 83 216 2.0 9.0 0.00 0.00 0.00 56 1014.3
20260902044529 84 144 1.0 5.0 0.00 0.00 0.00 56 1014.2
20260902043011 84 137 1.0 5.0 0.00 0.00 0.00 55 1014.1
20260902041603 84 243 0.0 6.0 0.00 0.00 0.00 55 1014.0
20260902040028 83 150 0.0 4.0 0.00 0.00 0.00 56 1014.0
20260902034509 80 306 0.0 3.0 0.00 0.00 0.00 62 1014.0
20260902033054 80 114 0.0 2.0 0.00 0.00 0.00 65 1013.9
20260902031532 81 124 0.0 2.0 0.00 0.00 0.00 61 1013.9
20260902030018 81 354 0.0 2.0 0.00 0.00 0.00 62 1013.8
20260902024502 81 125 0.0 1.0 0.00 0.00 0.00 62 1013.7
20260902023043 82 125 0.0 1.0 0.00 0.00 0.00 61 1013.5
20260902021526 82 125 0.0 1.0 0.00 0.00 0.00 61 1013.3
20260902020048 83 118 1.0 3.0 0.00 0.00 0.00 60 1013.0
20260902014541 83 153 0.0 2.0 0.00 0.00 0.00 59 1012.8
20260902013019 84 129 0.0 0.0 0.00 0.00 0.00 58 1012.8
20260902011600 85 129 0.0 2.0 0.00 0.00 0.00 56 1012.7
20260902011505 85 129 0.0 2.0 0.00 0.00 0.00 55 1012.7
20260902010036 87 129 0.0 2.0 0.00 0.00 0.00 53 1012.7
20260902004518 88 150 0.0 2.0 0.00 0.00 0.00 52 1012.7
20260902003058 89 150 0.0 1.0 0.00 0.00 0.00 50 1012.8
20260902001534 91 150 0.0 2.0 0.00 0.00 0.00 48 1012.9
20260902000014 91 143 0.0 2.0 0.00 0.00 0.00 46 1013.0
20260901234552 92 150 0.0 3.0 0.00 0.00 0.00 45 1013.0
20260901233038 93 143 0.0 2.0 0.00 0.00 0.00 44 1013.2
20260901231525 94 262 1.0 4.0 0.00 0.00 0.00 42 1013.2
20260901230004 94 135 2.0 5.0 0.00 0.00 0.00 42 1013.2
20260901224547 95 105 0.0 4.0 0.00 0.00 0.00 42 1013.1
20260901223025 95 100 5.0 9.0 0.00 0.00 0.00 42 1013.1
20260901221511 98 124 2.0 4.0 0.00 0.00 0.00 40 1013.1
20260901220111 98 150 0.0 4.0 0.00 0.00 0.00 39 1013.1
20260901214534 98 141 2.0 9.0 0.00 0.00 0.00 40 1013.1
20260901213056 99 147 1.0 6.0 0.00 0.00 0.00 40 1013.3
20260901211558 98 173 0.0 3.0 0.00 0.00 0.00 38 1013.4
20260901210047 98 114 2.0 5.0 0.00 0.00 0.00 38 1013.6
20260901204514 98 134 1.0 8.0 0.00 0.00 0.00 39 1013.8
20260901203109 98 137 2.0 6.0 0.00 0.00 0.00 40 1013.9
20260901203002 98 128 3.0 6.0 0.00 0.00 0.00 40 1013.9
20260901201536 99 240 2.0 5.0 0.00 0.00 0.00 35 1014.2
20260901200019 99 226 1.0 5.0 0.00 0.00 0.00 36 1014.2